Lid_Strength_Index
5 4 4 4 4 4 4 4 3 3 3 3 3 2 2 2 2 6 10 8 5 3 2 3 5 6 7 9 10 11 16 17 17 15 15 12 13 11 8 6 6 5 5 4 3
5 5 5 4 4 4 3 3 3 3 3 2 2 2 1 2 5 8 5 3 2 1 4 6 7 7 10 10 10 14 18 16 13 13 14 12 11 11 10 8 7 6 4 3 3
5 5 4 4 4 4 3 3 3 3 2 1 1 1 -0 0 6 9 2 0 -0 0 3 5 6 8 12 11 11 14 16 13 12 12 11 11 10 9 11 10 7 7 6 4 4
5 4 4 4 4 3 3 3 3 2 2 1 1 0 -0 2 12 3 -1 -2 -0 1 3 5 7 11 13 13 11 14 12 12 12 11 12 11 10 10 12 11 5 5 4 4 5
5 5 4 4 3 3 3 2 2 1 1 1 1 0 2 7 7 3 1 1 2 2 3 6 10 12 14 13 12 12 11 10 10 11 11 10 10 10 12 10 9 4 4 5 4
5 5 4 4 3 3 3 2 1 1 1 1 1 1 4 9 4 3 3 3 4 5 5 6 8 9 12 12 12 11 11 11 11 11 11 12 10 10 10 9 7 5 5 5 4
5 4 4 4 3 3 3 1 1 1 1 1 1 2 5 7 3 3 4 5 5 5 6 6 5 7 9 10 9 8 11 11 11 11 11 11 12 11 8 9 10 6 5 5 4
4 4 4 3 3 3 2 1 1 1 1 1 1 3 8 4 4 4 5 5 4 4 5 5 6 7 7 7 8 10 13 15 12 11 10 10 14 11 9 10 7 6 5 5 5
4 4 4 3 3 2 2 1 1 1 1 2 4 7 10 3 6 4 4 6 5 5 6 4 6 8 8 11 13 12 15 14 12 10 11 11 14 10 9 9 7 7 6 6 6
4 3 3 3 3 2 1 1 1 2 2 3 4 8 7 7 5 4 4 4 6 7 8 9 9 11 12 12 17 15 15 14 13 12 11 14 13 11 10 7 8 7 7 6 6
4 3 3 2 2 2 3 5 8 9 7 9 8 8 7 5 3 5 4 5 6 8 12 11 13 14 13 11 11 11 13 14 11 11 13 13 13 11 10 10 8 8 7 7 6
4 3 3 2 2 2 4 6 6 7 10 7 7 7 5 4 7 5 4 8 9 12 11 12 14 11 9 9 10 11 13 14 11 10 13 14 12 11 11 12 10 8 7 7 6
4 3 3 2 2 4 5 4 4 6 11 9 7 7 7 6 8 7 6 7 9 10 10 13 11 8 9 10 12 12 13 13 13 10 12 14 14 12 11 11 12 10 6 7 6
4 3 2 2 5 6 5 4 4 7 16 10 8 6 5 6 9 5 5 6 8 10 10 11 9 9 10 11 10 14 9 11 12 13 17 12 18 14 12 12 12 11 9 7 6
3 3 2 3 7 7 4 5 6 8 21 9 7 3 5 7 7 7 5 7 10 10 10 12 11 11 11 11 9 12 9 10 11 13 15 15 16 13 13 14 13 11 8 7 6
3 3 3 4 7 5 5 5 7 16 19 12 8 8 8 7 7 6 6 6 6 9 9 10 7 9 10 8 9 8 10 11 11 13 18 15 15 16 14 12 13 11 9 7 6
4 3 4 4 6 5 5 7 15 17 10 12 11 9 10 10 10 9 10 10 12 15 15 11 11 8 8 11 9 10 14 19 20 19 19 14 15 15 11 11 11 11 9 7 6
4 4 4 3 5 5 7 11 17 13 13 9 10 10 12 11 11 10 11 13 10 11 13 15 17 11 8 10 12 13 14 19 23 21 18 14 16 14 10 10 9 9 8 7 6
5 6 5 3 4 5 9 15 15 13 10 11 11 13 13 11 11 12 12 12 11 10 15 15 14 9 8 8 10 13 16 12 16 16 18 17 15 11 10 10 10 10 7 7 6
9 7 6 4 4 7 11 13 12 9 9 10 14 12 15 13 13 13 13 10 10 9 9 12 16 10 9 8 9 11 10 17 16 20 20 18 17 15 12 11 10 10 9 8 6
8 8 6 5 5 9 15 12 10 7 8 11 12 13 13 13 12 12 13 10 8 9 8 10 13 13 10 13 14 13 15 14 15 16 19 20 18 13 12 11 11 9 8 7 7
11 12 6 6 11 12 15 11 7 8 7 9 10 13 13 12 12 13 13 11 7 8 11 10 13 16 14 10 9 11 13 13 16 17 16 18 18 10 11 10 8 9 8 7 6
12 11 7 7 15 14 11 10 8 9 9 10 11 10 10 12 14 12 11 7 7 8 10 10 14 18 17 13 11 13 12 12 13 14 16 18 16 10 11 9 9 8 7 7 6
12 14 11 11 11 13 13 12 12 7 9 8 9 9 10 12 10 12 12 8 7 7 7 8 13 15 18 15 13 15 13 11 14 17 17 16 17 12 11 10 9 8 7 6 6
12 14 12 15 13 12 13 11 12 12 8 9 10 10 11 14 13 13 11 10 8 8 9 10 15 13 12 12 12 13 13 12 13 13 16 15 15 13 11 10 9 8 7 7 8
12 13 12 11 11 12 12 12 12 11 10 11 12 10 10 12 12 13 11 11 11 9 11 10 15 13 14 12 12 14 11 11 11 13 13 13 14 10 8 8 8 8 8 10 11
11 11 11 12 13 14 14 12 12 11 9 8 9 11 11 10 9 8 8 8 9 11 12 12 14 15 17 13 13 16 13 11 12 12 12 15 13 9 10 9 8 8 10 11 11